Tracking 31027 objects as of 19-Jul-2025
HD Live streaming from Space Station
objects crossing your sky now

FREGAT R/B

Track FREGAT R/B now!


NORAD ID: 45609
Int'l Code: 2020-031B
Perigee: 1,593.6 km
Apogee: 38,636.7 km
Inclination: 63.6 °
Period: 715.0 minutes
Semi major axis: 26486 km
RCS: Unknown
Launch date: May 22, 2020
Source: Commonwealth of Independent States (former USSR) (CIS)
Launch site: PLESETSK MISSILE AND SPACE COMPLEX (PKMTR)

Note: This is a ROCKET BODY
Your satellite tracking list
Your tracking list is empty




NASA's NSSDC Master Catalog

Two Line Element Set (TLE):
1 45609U 20031B   25191.96679228  .00001310  00000-0  00000-0 0  9992
2 45609  63.5822 106.6828 6992916 258.4054  21.9548  2.01406763 37786
Source of the keplerian elements: AFSPC